Time,TemperatureF,DewpointF,PressureIn,WindDirection,WindDirectionDegrees,WindSpeedMPH,WindSpeedGustMPH,Humidity,HourlyPrecipIn,Conditions,Clouds,dailyrainin,SolarRadiationWatts/m^2,SoftwareType,DateUTC
2013-05-01 00:04:00,69.2,50.3,29.93,SSW,194,4.0,6.0,51,0.00,,,0.00,0,Wunderground v.1.15,2013-05-01 05:04:00,
2013-05-01 00:09:00,69.2,50.3,29.93,SSE,162,4.0,4.0,51,0.00,,,0.00,0,Wunderground v.1.15,2013-05-01 05:09:00,
2013-05-01 00:19:00,69.0,50.6,29.93,South,175,4.0,4.0,52,0.00,,,0.00,0,Wunderground v.1.15,2013-05-01 05:19:00,
2013-05-01 00:24:00,68.8,50.5,29.93,SSE,149,4.0,4.0,52,0.00,,,0.00,0,Wunderground v.1.15,2013-05-01 05:24:00,
2013-05-01 00:34:00,68.9,50.5,29.94,South,177,4.0,4.0,52,0.00,,,0.00,0,Wunderground v.1.15,2013-05-01 05:34:00,
2013-05-01 00:39:00,68.8,50.5,29.94,SSE,168,4.0,4.0,52,0.00,,,0.00,0,Wunderground v.1.15,2013-05-01 05:39:00,
2013-05-01 00:49:00,68.6,50.8,29.94,SSE,159,3.0,3.0,53,0.00,,,0.00,0,Wunderground v.1.15,2013-05-01 05:49:00,
2013-05-01 00:59:00,68.5,50.7,29.94,SSE,167,3.0,3.0,53,0.00,,,0.00,0,Wunderground v.1.15,2013-05-01 05:59:00,
2013-05-01 01:09:00,68.2,50.9,29.94,SE,134,3.0,5.0,54,0.00,,,0.00,0,Wunderground v.1.15,2013-05-01 06:09:00,
2013-05-01 01:14:00,68.3,51.0,29.94,South,176,4.0,5.0,54,0.00,,,0.00,0,Wunderground v.1.15,2013-05-01 06:14:00,
2013-05-01 01:24:00,68.1,50.8,29.94,SE,141,4.0,5.0,54,0.00,,,0.00,0,Wunderground v.1.15,2013-05-01 06:24:00,
2013-05-01 01:34:00,67.8,51.0,29.94,South,171,4.0,4.0,55,0.00,,,0.00,0,Wunderground v.1.15,2013-05-01 06:34:00,
2013-05-01 01:44:00,67.2,51.0,29.94,South,171,3.0,4.0,56,0.00,,,0.00,0,Wunderground v.1.15,2013-05-01 06:44:00,
2013-05-01 01:54:00,67.1,50.9,29.94,South,177,3.0,3.0,56,0.00,,,0.00,0,Wunderground v.1.15,2013-05-01 06:54:00,
2013-05-01 02:04:00,66.9,51.2,29.95,South,178,3.0,4.0,57,0.00,,,0.00,0,Wunderground v.1.15,2013-05-01 07:04:00,
2013-05-01 02:09:00,66.8,51.1,29.95,SSE,152,3.0,3.0,57,0.00,,,0.00,0,Wunderground v.1.15,2013-05-01 07:09:00,
2013-05-01 02:19:00,66.5,51.3,29.95,SE,144,3.0,5.0,58,0.00,,,0.00,0,Wunderground v.1.15,2013-05-01 07:19:00,
2013-05-01 02:29:00,66.3,51.1,29.95,SSE,150,3.0,6.0,58,0.00,,,0.00,0,Wunderground v.1.15,2013-05-01 07:29:00,
2013-05-01 02:34:00,66.2,51.4,29.95,SSE,147,3.0,6.0,59,0.00,,,0.00,0,Wunderground v.1.15,2013-05-01 07:34:00,
2013-05-01 02:44:00,66.0,51.7,29.95,SSE,165,3.0,7.0,60,0.00,,,0.00,0,Wunderground v.1.15,2013-05-01 07:44:00,
2013-05-01 02:54:00,65.6,51.3,29.95,SSE,155,3.0,4.0,60,0.00,,,0.00,0,Wunderground v.1.15,2013-05-01 07:54:00,
2013-05-01 02:59:00,65.5,51.7,29.96,SSE,151,3.0,5.0,61,0.00,,,0.00,0,Wunderground v.1.15,2013-05-01 07:59:00,
2013-05-01 03:09:00,65.3,51.5,29.96,SSE,153,3.0,3.0,61,0.00,,,0.00,0,Wunderground v.1.15,2013-05-01 08:09:00,
2013-05-01 03:14:00,65.3,51.9,29.96,SSE,151,3.0,3.0,62,0.00,,,0.00,0,Wunderground v.1.15,2013-05-01 08:14:00,
2013-05-01 03:24:00,65.1,52.2,29.96,SSE,158,3.0,4.0,63,0.00,,,0.00,0,Wunderground v.1.15,2013-05-01 08:24:00,
2013-05-01 03:34:00,64.8,52.3,29.96,SSE,159,3.0,3.0,64,0.00,,,0.00,0,Wunderground v.1.15,2013-05-01 08:34:00,
2013-05-01 03:39:00,64.7,52.2,29.96,SSW,192,3.0,3.0,64,0.00,,,0.00,0,Wunderground v.1.15,2013-05-01 08:39:00,
2013-05-01 03:49:00,64.7,52.7,29.97,SSE,166,4.0,4.0,65,0.00,,,0.00,0,Wunderground v.1.15,2013-05-01 08:49:00,
2013-05-01 03:59:00,64.6,53.0,29.97,SE,134,3.0,4.0,66,0.00,,,0.00,0,Wunderground v.1.15,2013-05-01 08:59:00,
2013-05-01 04:04:00,64.5,52.9,29.97,SE,144,3.0,4.0,66,0.00,,,0.00,0,Wunderground v.1.15,2013-05-01 09:04:00,
2013-05-01 04:14:00,64.2,53.0,29.97,SE,144,3.0,5.0,67,0.00,,,0.00,0,Wunderground v.1.15,2013-05-01 09:14:00,
2013-05-01 04:24:00,64.2,53.0,29.97,SE,132,4.0,6.0,67,0.00,,,0.00,0,Wunderground v.1.15,2013-05-01 09:24:00,
2013-05-01 04:29:00,64.1,52.9,29.97,SSE,158,4.0,4.0,67,0.00,,,0.00,0,Wunderground v.1.15,2013-05-01 09:29:00,
2013-05-01 04:39:00,64.1,53.3,29.97,SE,134,4.0,4.0,68,0.00,,,0.00,0,Wunderground v.1.15,2013-05-01 09:39:00,
2013-05-01 04:50:00,63.9,53.1,29.97,SE,126,4.0,5.0,68,0.00,,,0.00,0,Wunderground v.1.15,2013-05-01 09:50:00,
2013-05-01 04:55:00,63.9,53.1,29.98,SSE,150,4.0,5.0,68,0.00,,,0.00,0,Wunderground v.1.15,2013-05-01 09:55:00,
2013-05-01 05:05:00,63.7,53.3,29.98,SSE,151,4.0,4.0,69,0.00,,,0.00,0,Wunderground v.1.15,2013-05-01 10:05:00,
2013-05-01 05:15:00,63.4,53.4,29.99,SE,145,3.0,3.0,70,0.00,,,0.00,0,Wunderground v.1.15,2013-05-01 10:15:00,
2013-05-01 05:24:00,63.4,53.4,29.99,SSE,148,2.0,3.0,70,0.00,,,0.00,0,Wunderground v.1.15,2013-05-01 10:24:00,
2013-05-01 05:30:00,63.2,53.3,30.00,SE,141,2.0,2.0,70,0.00,,,0.00,0,Wunderground v.1.15,2013-05-01 10:30:00,
2013-05-01 05:40:00,63.0,53.4,30.00,SE,142,2.0,2.0,71,0.00,,,0.00,0,Wunderground v.1.15,2013-05-01 10:40:00,
2013-05-01 05:50:00,62.7,53.2,30.00,SE,142,2.0,2.0,71,0.00,,,0.00,0,Wunderground v.1.15,2013-05-01 10:50:00,
2013-05-01 06:00:00,62.6,53.1,30.00,SE,146,2.0,2.0,71,0.00,,,0.00,0,Wunderground v.1.15,2013-05-01 11:00:00,
2013-05-01 06:09:00,62.5,53.3,30.01,SSE,154,2.0,3.0,72,0.00,,,0.00,0,Wunderground v.1.15,2013-05-01 11:09:00,
2013-05-01 06:15:00,62.7,53.2,30.01,SE,146,2.0,3.0,71,0.00,,,0.00,0,Wunderground v.1.15,2013-05-01 11:15:00,
2013-05-01 06:24:00,62.6,53.4,30.02,ESE,121,3.0,4.0,72,0.00,,,0.00,9,Wunderground v.1.15,2013-05-01 11:24:00,
2013-05-01 06:34:00,62.7,53.5,30.02,SSE,152,4.0,4.0,72,0.00,,,0.00,19,Wunderground v.1.15,2013-05-01 11:34:00,
2013-05-01 06:40:00,63.0,53.8,30.02,SE,126,4.0,4.0,72,0.00,,,0.00,25,Wunderground v.1.15,2013-05-01 11:40:00,
2013-05-01 06:49:00,63.0,53.8,30.02,SE,138,3.0,3.0,72,0.00,,,0.00,30,Wunderground v.1.15,2013-05-01 11:49:00,
2013-05-01 06:59:00,62.9,53.7,30.03,SE,134,4.0,4.0,72,0.00,,,0.00,44,Wunderground v.1.15,2013-05-01 11:59:00,
2013-05-01 07:09:00,62.9,54.1,30.03,SE,132,3.0,5.0,73,0.00,,,0.00,51,Wunderground v.1.15,2013-05-01 12:09:00,
2013-05-01 07:14:00,63.0,53.8,30.03,South,171,4.0,5.0,72,0.00,,,0.00,60,Wunderground v.1.15,2013-05-01 12:14:00,
2013-05-01 07:24:00,63.3,54.1,30.03,SE,134,4.0,4.0,72,0.00,,,0.00,109,Wunderground v.1.15,2013-05-01 12:24:00,
2013-05-01 07:34:00,63.6,54.0,30.04,SSE,158,4.0,7.0,71,0.00,,,0.00,121,Wunderground v.1.15,2013-05-01 12:34:00,
2013-05-01 07:39:00,63.9,54.3,30.04,SE,140,4.0,5.0,71,0.00,,,0.00,181,Wunderground v.1.15,2013-05-01 12:39:00,
2013-05-01 07:49:00,64.8,54.8,30.04,SSE,149,3.0,5.0,70,0.00,,,0.00,269,Wunderground v.1.15,2013-05-01 12:49:00,
2013-05-01 07:59:00,65.5,55.5,30.04,SSE,148,3.0,3.0,70,0.00,,,0.00,149,Wunderground v.1.15,2013-05-01 12:59:00,
2013-05-01 08:04:00,65.5,55.5,30.05,South,179,3.0,4.0,70,0.00,,,0.00,123,Wunderground v.1.15,2013-05-01 13:04:00,
2013-05-01 08:14:00,66.5,56.4,30.05,SSE,165,3.0,5.0,70,0.00,,,0.00,380,Wunderground v.1.15,2013-05-01 13:14:00,
2013-05-01 08:19:00,67.3,56.4,30.05,SSE,162,2.0,2.0,68,0.00,,,0.00,234,Wunderground v.1.15,2013-05-01 13:19:00,
2013-05-01 08:29:00,68.4,56.6,30.05,SSE,155,3.0,7.0,66,0.00,,,0.00,461,Wunderground v.1.15,2013-05-01 13:29:00,
2013-05-01 08:39:00,69.1,56.4,30.05,South,186,4.0,4.0,64,0.00,,,0.00,473,Wunderground v.1.15,2013-05-01 13:39:00,
2013-05-01 08:44:00,69.0,56.3,30.05,South,183,4.0,4.0,64,0.00,,,0.00,197,Wunderground v.1.15,2013-05-01 13:44:00,
2013-05-01 08:54:00,69.2,56.9,30.05,South,172,4.0,6.0,65,0.00,,,0.00,341,Wunderground v.1.15,2013-05-01 13:54:00,
2013-05-01 08:59:00,69.4,57.5,30.05,SSE,154,4.0,4.0,66,0.00,,,0.00,541,Wunderground v.1.15,2013-05-01 13:59:00,
2013-05-01 09:09:00,70.1,58.2,30.05,SSE,163,4.0,4.0,66,0.00,,,0.00,292,Wunderground v.1.15,2013-05-01 14:09:00,
2013-05-01 09:19:00,71.3,58.5,30.05,SSE,148,4.0,4.0,64,0.00,,,0.00,580,Wunderground v.1.15,2013-05-01 14:19:00,
2013-05-01 09:24:00,71.9,59.5,30.05,SSE,158,3.0,4.0,65,0.00,,,0.00,575,Wunderground v.1.15,2013-05-01 14:24:00,
2013-05-01 09:34:00,72.5,59.6,30.05,South,171,4.0,4.0,64,0.00,,,0.00,599,Wunderground v.1.15,2013-05-01 14:34:00,
2013-05-01 09:44:00,73.0,59.2,30.05,South,169,3.0,7.0,62,0.00,,,0.00,629,Wunderground v.1.15,2013-05-01 14:44:00,
2013-05-01 09:54:00,73.4,60.0,30.05,South,185,4.0,5.0,63,0.00,,,0.00,657,Wunderground v.1.15,2013-05-01 14:54:00,
2013-05-01 10:04:00,74.5,61.1,30.05,SSE,159,4.0,4.0,63,0.00,,,0.00,677,Wunderground v.1.15,2013-05-01 15:04:00,
2013-05-01 10:09:00,74.6,60.3,30.05,SSE,152,4.0,6.0,61,0.00,,,0.00,691,Wunderground v.1.15,2013-05-01 15:09:00,
2013-05-01 10:19:00,75.6,62.1,30.05,SE,144,4.0,4.0,63,0.00,,,0.00,717,Wunderground v.1.15,2013-05-01 15:19:00,
2013-05-01 10:24:00,75.8,60.9,30.06,SSE,150,4.0,4.0,60,0.00,,,0.00,729,Wunderground v.1.15,2013-05-01 15:24:00,
2013-05-01 10:34:00,76.2,60.8,30.06,SSW,206,5.0,8.0,59,0.00,,,0.00,751,Wunderground v.1.15,2013-05-01 15:34:00,
2013-05-01 10:44:00,76.5,62.0,30.06,South,187,5.0,10.0,61,0.00,,,0.00,779,Wunderground v.1.15,2013-05-01 15:44:00,
2013-05-01 10:54:00,77.2,61.8,30.06,SSE,151,5.0,7.0,59,0.00,,,0.00,800,Wunderground v.1.15,2013-05-01 15:54:00,
2013-05-01 11:04:00,77.6,61.7,30.06,SSW,210,5.0,6.0,58,0.00,,,0.00,831,Wunderground v.1.15,2013-05-01 16:04:00,
2013-05-01 11:09:00,77.8,61.3,30.06,SSW,192,5.0,5.0,57,0.00,,,0.00,847,Wunderground v.1.15,2013-05-01 16:09:00,
2013-05-01 11:19:00,78.1,61.6,30.06,South,184,5.0,10.0,57,0.00,,,0.00,902,Wunderground v.1.15,2013-05-01 16:19:00,
2013-05-01 11:29:00,77.7,59.7,30.06,South,184,5.0,5.0,54,0.00,,,0.00,919,Wunderground v.1.15,2013-05-01 16:29:00,
2013-05-01 11:34:00,77.1,58.6,30.06,South,173,5.0,5.0,53,0.00,,,0.00,223,Wunderground v.1.15,2013-05-01 16:34:00,
2013-05-01 11:44:00,77.6,59.1,30.06,South,184,5.0,5.0,53,0.00,,,0.00,262,Wunderground v.1.15,2013-05-01 16:44:00,
2013-05-01 11:54:00,77.6,58.6,30.06,SSE,162,4.0,7.0,52,0.00,,,0.00,932,Wunderground v.1.15,2013-05-01 16:54:00,
2013-05-01 11:59:00,77.6,58.6,30.06,SSE,159,4.0,4.0,52,0.00,,,0.00,267,Wunderground v.1.15,2013-05-01 16:59:00,
2013-05-01 12:09:00,78.2,59.7,30.07,SSE,165,4.0,4.0,53,0.00,,,0.00,290,Wunderground v.1.15,2013-05-01 17:09:00,
2013-05-01 12:19:00,79.5,58.7,30.06,SSW,199,5.0,9.0,49,0.00,,,0.00,984,Wunderground v.1.15,2013-05-01 17:19:00,
2013-05-01 12:24:00,79.7,57.7,30.06,SSW,209,5.0,9.0,47,0.00,,,0.00,969,Wunderground v.1.15,2013-05-01 17:24:00,
2013-05-01 12:34:00,80.5,59.0,30.07,SW,229,7.0,7.0,48,0.00,,,0.00,974,Wunderground v.1.15,2013-05-01 17:34:00,
2013-05-01 12:45:00,80.6,59.7,30.07,South,173,5.0,10.0,49,0.00,,,0.00,1018,Wunderground v.1.15,2013-05-01 17:45:00,
2013-05-01 12:50:00,79.9,58.5,30.07,SSW,198,5.0,5.0,48,0.00,,,0.00,255,Wunderground v.1.15,2013-05-01 17:50:00,
2013-05-01 13:00:00,79.6,57.0,30.07,SE,143,3.0,3.0,46,0.00,,,0.00,998,Wunderground v.1.15,2013-05-01 18:00:00,
2013-05-01 13:05:00,79.8,57.2,30.06,SSE,157,4.0,6.0,46,0.00,,,0.00,979,Wunderground v.1.15,2013-05-01 18:05:00,
2013-05-01 13:15:00,80.2,58.1,30.06,ESE,112,5.0,6.0,47,0.00,,,0.00,1004,Wunderground v.1.15,2013-05-01 18:15:00,
2013-05-01 13:25:00,80.8,57.5,30.06,SSW,199,5.0,7.0,45,0.00,,,0.00,977,Wunderground v.1.15,2013-05-01 18:25:00,
2013-05-01 13:34:00,81.5,58.1,30.06,South,178,5.0,5.0,45,0.00,,,0.00,979,Wunderground v.1.15,2013-05-01 18:34:00,
2013-05-01 13:40:00,81.7,58.9,30.06,SSW,192,4.0,5.0,46,0.00,,,0.00,976,Wunderground v.1.15,2013-05-01 18:40:00,
2013-05-01 13:50:00,81.1,57.7,30.06,SE,144,5.0,5.0,45,0.00,,,0.00,951,Wunderground v.1.15,2013-05-01 18:50:00,
2013-05-01 13:55:00,81.1,57.7,30.06,SE,139,5.0,6.0,45,0.00,,,0.00,951,Wunderground v.1.15,2013-05-01 18:55:00,
2013-05-01 14:05:00,81.5,58.1,30.05,East,86,4.0,4.0,45,0.00,,,0.00,925,Wunderground v.1.15,2013-05-01 19:05:00,
2013-05-01 14:14:00,81.8,57.8,30.05,ESE,109,5.0,5.0,44,0.00,,,0.00,951,Wunderground v.1.15,2013-05-01 19:14:00,
2013-05-01 14:20:00,82.1,58.7,30.05,SSE,166,4.0,4.0,45,0.00,,,0.00,940,Wunderground v.1.15,2013-05-01 19:20:00,
2013-05-01 14:30:00,82.3,58.2,30.05,SSE,167,3.0,4.0,44,0.00,,,0.00,921,Wunderground v.1.15,2013-05-01 19:30:00,
2013-05-01 14:40:00,82.7,58.6,30.04,SSE,148,4.0,4.0,44,0.00,,,0.00,937,Wunderground v.1.15,2013-05-01 19:40:00,
2013-05-01 14:49:00,82.1,58.7,30.04,South,169,4.0,4.0,45,0.00,,,0.00,888,Wunderground v.1.15,2013-05-01 19:49:00,
2013-05-01 14:59:00,82.1,56.1,30.04,South,184,5.0,5.0,41,0.00,,,0.00,912,Wunderground v.1.15,2013-05-01 19:59:00,
2013-05-01 15:04:00,82.4,57.7,30.04,SSE,157,4.0,5.0,43,0.00,,,0.00,889,Wunderground v.1.15,2013-05-01 20:04:00,
2013-05-01 15:14:00,82.8,59.3,30.04,SSE,153,5.0,5.0,45,0.00,,,0.00,902,Wunderground v.1.15,2013-05-01 20:14:00,
2013-05-01 15:24:00,82.3,59.4,30.04,SE,146,4.0,5.0,46,0.00,,,0.00,826,Wunderground v.1.15,2013-05-01 20:24:00,
2013-05-01 15:34:00,82.6,58.5,30.04,SE,131,4.0,6.0,44,0.00,,,0.00,810,Wunderground v.1.15,2013-05-01 20:34:00,
2013-05-01 15:39:00,82.7,57.9,30.03,SE,146,5.0,5.0,43,0.00,,,0.00,777,Wunderground v.1.15,2013-05-01 20:39:00,
2013-05-01 15:49:00,82.8,56.7,30.03,SSE,153,4.0,4.0,41,0.00,,,0.00,752,Wunderground v.1.15,2013-05-01 20:49:00,
2013-05-01 15:59:00,83.0,56.9,30.03,SSW,201,4.0,5.0,41,0.00,,,0.00,749,Wunderground v.1.15,2013-05-01 20:59:00,
2013-05-01 16:04:00,83.1,58.3,30.03,East,84,5.0,5.0,43,0.00,,,0.00,759,Wunderground v.1.15,2013-05-01 21:04:00,
2013-05-01 16:14:00,83.2,57.7,30.02,East,99,5.0,8.0,42,0.00,,,0.00,693,Wunderground v.1.15,2013-05-01 21:14:00,
2013-05-01 16:24:00,83.1,57.0,30.02,SE,137,5.0,5.0,41,0.00,,,0.00,671,Wunderground v.1.15,2013-05-01 21:24:00,
2013-05-01 16:29:00,83.0,58.8,30.02,ESE,117,5.0,8.0,44,0.00,,,0.00,642,Wunderground v.1.15,2013-05-01 21:29:00,
2013-05-01 16:39:00,83.1,58.9,30.01,SSE,148,5.0,5.0,44,0.00,,,0.00,612,Wunderground v.1.15,2013-05-01 21:39:00,
2013-05-01 16:49:00,83.2,58.4,30.01,SW,217,5.0,5.0,43,0.00,,,0.00,582,Wunderground v.1.15,2013-05-01 21:49:00,
2013-05-01 16:59:00,83.4,57.2,30.01,South,190,5.0,5.0,41,0.00,,,0.00,554,Wunderground v.1.15,2013-05-01 21:59:00,
2013-05-01 17:04:00,83.6,58.1,30.01,SW,225,5.0,5.0,42,0.00,,,0.00,534,Wunderground v.1.15,2013-05-01 22:04:00,
2013-05-01 17:09:00,83.7,56.8,30.01,SSW,198,4.0,4.0,40,0.00,,,0.00,529,Wunderground v.1.15,2013-05-01 22:09:00,
2013-05-01 17:19:00,83.6,56.7,30.01,SE,129,4.0,6.0,40,0.00,,,0.00,232,Wunderground v.1.15,2013-05-01 22:19:00,
2013-05-01 17:29:00,83.6,58.1,30.02,East,84,4.0,4.0,42,0.00,,,0.00,227,Wunderground v.1.15,2013-05-01 22:29:00,
2013-05-01 17:34:00,82.6,56.5,30.02,SSE,149,5.0,8.0,41,0.00,,,0.00,141,Wunderground v.1.15,2013-05-01 22:34:00,
2013-05-01 17:44:00,81.9,57.2,30.02,SE,141,6.0,7.0,43,0.00,,,0.00,171,Wunderground v.1.15,2013-05-01 22:44:00,
2013-05-01 17:54:00,81.8,59.0,30.02,SE,131,2.0,3.0,46,0.00,,,0.00,148,Wunderground v.1.15,2013-05-01 22:54:00,
2013-05-01 18:04:00,81.8,58.4,30.02,East,101,3.0,8.0,45,0.00,,,0.00,139,Wunderground v.1.15,2013-05-01 23:04:00,
2013-05-01 18:09:00,81.5,57.5,30.02,SE,137,4.0,4.0,44,0.00,,,0.00,137,Wunderground v.1.15,2013-05-01 23:09:00,
2013-05-01 18:14:00,81.5,58.7,30.02,SSE,148,3.0,4.0,46,0.00,,,0.00,350,Wunderground v.1.15,2013-05-01 23:14:00,
2013-05-01 18:24:00,82.0,59.8,30.02,SE,138,2.0,2.0,47,0.00,,,0.00,287,Wunderground v.1.15,2013-05-01 23:24:00,
2013-05-01 18:34:00,81.9,59.7,30.02,SSE,157,1.0,2.0,47,0.00,,,0.00,195,Wunderground v.1.15,2013-05-01 23:34:00,
2013-05-01 18:39:00,81.9,59.1,30.02,ESE,102,2.0,3.0,46,0.00,,,0.00,132,Wunderground v.1.15,2013-05-01 23:39:00,
2013-05-01 18:49:00,81.9,59.1,30.02,SE,132,3.0,3.0,46,0.00,,,0.00,95,Wunderground v.1.15,2013-05-01 23:49:00,
2013-05-01 18:59:00,81.7,58.9,30.02,SE,127,3.0,3.0,46,0.00,,,0.00,153,Wunderground v.1.15,2013-05-01 23:59:00,
2013-05-01 19:09:00,81.5,59.3,30.02,SE,132,2.0,2.0,47,0.00,,,0.00,142,Wunderground v.1.15,2013-05-02 00:09:00,
2013-05-01 19:14:00,81.4,59.2,30.02,SE,138,3.0,3.0,47,0.00,,,0.00,128,Wunderground v.1.15,2013-05-02 00:14:00,
2013-05-01 19:24:00,80.8,59.3,30.03,SE,146,1.0,2.0,48,0.00,,,0.00,88,Wunderground v.1.15,2013-05-02 00:24:00,
2013-05-01 19:34:00,80.5,59.0,30.03,SSE,157,1.0,2.0,48,0.00,,,0.00,35,Wunderground v.1.15,2013-05-02 00:34:00,
2013-05-01 19:44:00,80.0,59.1,30.03,SSE,157,0.0,1.0,49,0.00,,,0.00,16,Wunderground v.1.15,2013-05-02 00:44:00,
2013-05-01 19:49:00,79.2,59.0,30.03,SSE,157,0.0,0.0,50,0.00,,,0.00,12,Wunderground v.1.15,2013-05-02 00:49:00,
2013-05-01 19:59:00,78.4,58.2,30.03,SSE,157,1.0,1.0,50,0.00,,,0.00,0,Wunderground v.1.15,2013-05-02 00:59:00,
2013-05-01 20:09:00,77.8,58.2,30.04,SSE,157,0.0,1.0,51,0.00,,,0.00,0,Wunderground v.1.15,2013-05-02 01:09:00,
2013-05-01 20:19:00,78.2,57.5,30.04,SSE,164,1.0,1.0,49,0.00,,,0.00,0,Wunderground v.1.15,2013-05-02 01:19:00,
2013-05-01 20:29:00,77.4,57.3,30.05,SSE,164,0.0,1.0,50,0.00,,,0.00,0,Wunderground v.1.15,2013-05-02 01:29:00,
2013-05-01 20:34:00,77.3,57.8,30.05,SSE,164,0.0,1.0,51,0.00,,,0.00,0,Wunderground v.1.15,2013-05-02 01:34:00,
2013-05-01 20:45:00,77.2,57.7,30.05,SSE,164,0.0,1.0,51,0.00,,,0.00,0,Wunderground v.1.15,2013-05-02 01:45:00,
2013-05-01 20:50:00,76.7,57.7,30.05,SSE,164,1.0,1.0,52,0.00,,,0.00,0,Wunderground v.1.15,2013-05-02 01:50:00,
2013-05-01 21:00:00,76.0,57.6,30.05,SSE,163,1.0,1.0,53,0.00,,,0.00,0,Wunderground v.1.15,2013-05-02 02:00:00,
2013-05-01 21:10:00,75.2,57.4,30.05,ESE,107,1.0,1.0,54,0.00,,,0.00,0,Wunderground v.1.15,2013-05-02 02:10:00,
2013-05-01 21:15:00,75.3,57.5,30.05,ESE,105,1.0,1.0,54,0.00,,,0.00,0,Wunderground v.1.15,2013-05-02 02:15:00,
2013-05-01 21:25:00,75.5,57.7,30.06,SSE,147,1.0,3.0,54,0.00,,,0.00,0,Wunderground v.1.15,2013-05-02 02:25:00,
2013-05-01 21:35:00,74.6,56.9,30.08,NNW,327,3.0,10.0,54,0.00,,,0.00,0,Wunderground v.1.15,2013-05-02 02:35:00,
2013-05-01 21:45:00,67.3,52.5,30.09,NW,304,9.0,9.0,59,0.00,,,0.00,0,Wunderground v.1.15,2013-05-02 02:45:00,
2013-05-01 21:55:00,64.5,52.0,30.09,NW,323,8.0,12.0,64,0.00,,,0.00,0,Wunderground v.1.15,2013-05-02 02:55:00,
2013-05-01 22:00:00,64.0,52.0,30.11,NW,307,7.0,10.0,65,0.00,,,0.00,0,Wunderground v.1.15,2013-05-02 03:00:00,
2013-05-01 22:10:00,63.1,52.4,30.12,NNW,348,7.0,9.0,68,0.00,,,0.00,0,Wunderground v.1.15,2013-05-02 03:10:00,
2013-05-01 22:20:00,61.5,52.0,30.12,WNW,300,8.0,9.0,71,0.00,,,0.00,0,Wunderground v.1.15,2013-05-02 03:20:00,
2013-05-01 22:30:00,60.6,51.9,30.13,North,350,7.0,11.0,73,0.00,,,0.00,0,Wunderground v.1.15,2013-05-02 03:30:00,
2013-05-01 22:39:00,60.4,51.7,30.13,North,360,5.0,5.0,73,0.00,,,0.00,0,Wunderground v.1.15,2013-05-02 03:39:00,
2013-05-01 22:49:00,59.9,50.8,30.06,NNW,348,6.0,8.0,72,0.00,,,0.00,0,Wunderground v.1.15,2013-05-02 03:49:00,
2013-05-01 22:55:00,59.7,50.3,30.14,NNW,346,7.0,10.0,71,0.00,,,0.00,0,Wunderground v.1.15,2013-05-02 03:55:00,
2013-05-01 23:04:00,59.2,49.8,30.16,NW,313,7.0,7.0,71,0.00,,,0.00,0,Wunderground v.1.15,2013-05-02 04:04:00,
2013-05-01 23:10:00,59.0,50.0,30.15,NW,319,6.0,9.0,72,0.00,,,0.00,0,Wunderground v.1.15,2013-05-02 04:10:00,
2013-05-01 23:19:00,58.5,49.1,30.15,NNE,15,9.0,9.0,71,0.00,,,0.00,0,Wunderground v.1.15,2013-05-02 04:19:00,
2013-05-01 23:24:00,58.2,49.2,30.16,North,355,9.0,10.0,72,0.00,,,0.00,0,Wunderground v.1.15,2013-05-02 04:24:00,
2013-05-01 23:29:00,58.0,49.0,30.16,North,5,9.0,9.0,72,0.00,,,0.00,0,Wunderground v.1.15,2013-05-02 04:29:00,
2013-05-01 23:34:00,57.9,49.3,30.16,North,360,9.0,9.0,73,0.00,,,0.00,0,Wunderground v.1.15,2013-05-02 04:34:00,
2013-05-01 23:39:00,57.8,49.6,30.17,NNE,15,7.0,7.0,74,0.00,,,0.00,0,Wunderground v.1.15,2013-05-02 04:39:00,
2013-05-01 23:44:00,57.7,49.5,30.16,NNW,334,7.0,9.0,74,0.00,,,0.00,0,Wunderground v.1.15,2013-05-02 04:44:00,
2013-05-01 23:54:00,56.8,48.6,30.16,North,355,8.0,12.0,74,0.00,,,0.00,0,Wunderground v.1.15,2013-05-02 04:54:00,